Weather History for Kingstree, SC

Change the Weather History Date:

Sunday, February 24, 2013

  Actual Average Record
Temperature  
Mean Temperature 54 °F -  
Max Temperature 66 °F 61 °F 80 °F (2012)
Min Temperature 42 °F 36 °F 33 °F (2011)
Degree Days  
Heating Degree Days 11    
Growing Degree Days 4 (Base 50)    
Moisture  
Dew Point 49 °F    
Average Humidity 90    
Maximum Humidity 100    
Minimum Humidity 49    
Precipitation  
Precipitation 0.02 in - - ()
Sea Level Pressure  
Sea Level Pressure 29.94 in    
Wind  
Wind Speed 5 mph (West)    
Max Wind Speed 10 mph    
Max Gust Speed -    
Visibility 9 miles    
Events      
Averages and records for this station are not official NWS values.
T = Trace of Precipitation, MM = Missing Value Source: NWS Daily Summary

Daily Weather History Graph

Daily Weather History Graph

Search for Another Location

Airport:

Trip Planner

Search our weather history database for the weather conditions in past years. The results will help you decide how hot, cold, wet, or windy it might be!

Date:

Astronomy

Feb. 24, 2013 Rise Set
Actual Time 6:53 AM EST 6:12 PM EST
Civil Twilight 6:28 AM EST 6:37 PM EST
Nautical Twilight 5:59 AM EST 7:06 PM EST
Astronomical Twilight 5:30 AM EST 7:35 PM EST
Moon 5:21 PM EST (2/24) 5:48 AM EST (2/24)
Length of Visible Light 12h 08m
Length of Day
11h 18m
Waxing Gibbous, 99% of the Moon is Illuminated
Feb 24
Waxing Gibbous
Feb 25
Full
Mar 4
Last Quarter
Mar 11
New
Mar 19
First Quarter

Hourly Weather History & Observations

Time (EST) Temp. Windchill Dew Point Humidity Pressure Visibility Wind Dir Wind Speed Gust Speed Precip Events Conditions
12:15 AM 46.4 °F 42.4 °F 46.4 °F 100% 29.84 in 10.0 mi WNW 8.1 mph - N/A   Clear
12:35 AM 46.4 °F 45.2 °F 46.4 °F 100% 29.82 in 10.0 mi NW 3.5 mph - N/A   Clear
12:55 AM 46.4 °F 43.5 °F 46.4 °F 100% 29.84 in 10.0 mi WNW 5.8 mph - N/A   Clear
1:15 AM 46.4 °F 44.3 °F 46.4 °F 100% 29.85 in 10.0 mi WNW 4.6 mph - N/A   Clear
1:35 AM 46.4 °F 43.5 °F 46.4 °F 100% 29.86 in 10.0 mi WNW 5.8 mph - N/A   Clear
1:55 AM 46.4 °F 41.9 °F 46.4 °F 100% 29.87 in 7.0 mi West 9.2 mph - N/A   Clear
2:15 AM 48.2 °F - 48.2 °F 100% 29.86 in 5.0 mi WSW 3.5 mph - N/A   Clear
2:35 AM 48.2 °F - 48.2 °F 100% 29.86 in 5.0 mi West 4.6 mph - N/A   Clear
2:55 AM 48.2 °F - 48.2 °F 100% 29.86 in 4.0 mi West 6.9 mph - N/A   Clear
3:15 AM 46.4 °F 42.4 °F 46.4 °F 100% 29.87 in 2.5 mi West 8.1 mph - N/A   Drizzle
3:35 AM 48.2 °F - 48.2 °F 100% 29.87 in 4.0 mi West 6.9 mph - 0.01 in   Heavy Drizzle
3:55 AM 48.2 °F - 48.2 °F 100% 29.87 in 7.0 mi West 5.8 mph - 0.01 in   Clear
4:15 AM 48.2 °F - 48.2 °F 100% 29.87 in 5.0 mi West 5.8 mph - 0.01 in   Light Drizzle
4:35 AM 48.2 °F - 48.2 °F 100% 29.86 in 10.0 mi Calm Calm - 0.01 in   Clear
4:55 AM 48.2 °F - 48.2 °F 100% 29.88 in 10.0 mi West 4.6 mph - 0.01 in   Clear
5:15 AM 48.2 °F - 48.2 °F 100% 29.88 in 10.0 mi WSW 3.5 mph - N/A   Clear
5:35 AM 48.2 °F - 48.2 °F 100% 29.88 in 10.0 mi West 4.6 mph - N/A   Clear
5:55 AM 48.2 °F - 48.2 °F 100% 29.88 in 10.0 mi West 5.8 mph - N/A   Clear
6:15 AM 48.2 °F - 48.2 °F 100% 29.89 in 10.0 mi West 6.9 mph - N/A   Clear
6:35 AM 48.2 °F - 48.2 °F 100% 29.90 in 10.0 mi WNW 8.1 mph - N/A   Clear
6:55 AM 46.4 °F 42.4 °F 46.4 °F 100% 29.91 in 7.0 mi West 8.1 mph - N/A   Clear
7:15 AM 46.4 °F 41.5 °F 46.4 °F 100% 29.93 in 7.0 mi WNW 10.4 mph - N/A   Clear
7:35 AM 46.4 °F 42.4 °F 46.4 °F 100% 29.94 in 7.0 mi West 8.1 mph - N/A   Clear
7:55 AM 48.2 °F - 48.2 °F 100% 29.94 in 7.0 mi West 4.6 mph - N/A   Clear
8:15 AM 46.4 °F 42.4 °F 46.4 °F 100% 29.95 in 7.0 mi WNW 8.1 mph - N/A   Clear
8:35 AM 48.2 °F - 48.2 °F 100% 29.96 in 7.0 mi West 6.9 mph - N/A   Clear
8:55 AM 48.2 °F - 48.2 °F 100% 29.97 in 10.0 mi West 6.9 mph - N/A   Clear
9:15 AM 48.2 °F - 48.2 °F 100% 29.98 in 7.0 mi West 9.2 mph - N/A   Clear
9:35 AM 50.0 °F - 50.0 °F 100% 29.98 in 7.0 mi NW 5.8 mph - N/A   Clear
9:55 AM 50.0 °F - 50.0 °F 100% 29.99 in 10.0 mi WNW 6.9 mph - N/A   Clear
10:15 AM 51.8 °F - 51.8 °F 100% 29.99 in 10.0 mi WNW 8.1 mph - N/A   Clear
10:35 AM 51.8 °F - 51.8 °F 100% 30.00 in 10.0 mi WNW 10.4 mph - N/A   Clear
10:55 AM 53.6 °F - 51.8 °F 94% 30.01 in 10.0 mi West 8.1 mph - N/A   Clear
11:15 AM 53.6 °F - 51.8 °F 94% 30.00 in 10.0 mi West 8.1 mph - N/A   Clear
11:35 AM 55.4 °F - 51.8 °F 88% 30.00 in 10.0 mi WNW 5.8 mph - N/A   Clear
11:55 AM 55.4 °F - 51.8 °F 88% 29.99 in 10.0 mi WNW 6.9 mph - N/A   Clear
12:15 PM 57.2 °F - 53.6 °F 88% 29.98 in 10.0 mi West 3.5 mph - N/A   Clear
12:35 PM 59.0 °F - 51.8 °F 77% 29.98 in 10.0 mi West 3.5 mph - N/A   Clear
12:55 PM 59.0 °F - 51.8 °F 77% 29.97 in 10.0 mi Calm Calm - N/A   Clear
1:15 PM 60.8 °F - 51.8 °F 72% 29.97 in 10.0 mi Calm Calm - N/A   Clear
1:35 PM 60.8 °F - 51.8 °F 72% 29.96 in 10.0 mi West 6.9 mph - N/A   Clear
1:55 PM 60.8 °F - 50.0 °F 68% 29.95 in 10.0 mi Calm Calm - N/A   Clear
2:15 PM 62.6 °F - 51.8 °F 68% 29.94 in 10.0 mi NW 3.5 mph - N/A   Clear
2:35 PM 64.4 °F - 51.8 °F 64% 29.94 in 10.0 mi WSW 5.8 mph - N/A   Clear
2:55 PM 64.4 °F - 51.8 °F 64% 29.93 in 10.0 mi West 9.2 mph - N/A   Clear
3:15 PM 64.4 °F - 50.0 °F 59% 29.93 in 10.0 mi NW 8.1 mph - N/A   Clear
3:35 PM 64.4 °F - 51.8 °F 64% 29.93 in 10.0 mi WNW 6.9 mph - N/A   Clear
3:55 PM 66.2 °F - 51.8 °F 60% 29.93 in 10.0 mi WNW 4.6 mph - N/A   Clear
4:15 PM 66.2 °F - 48.2 °F 52% 29.93 in 10.0 mi West 5.8 mph - N/A   Clear
4:35 PM 66.2 °F - 46.4 °F 49% 29.93 in 10.0 mi West 9.2 mph - N/A   Clear
4:55 PM 66.2 °F - 48.2 °F 52% 29.93 in 10.0 mi WNW 3.5 mph - N/A   Clear
5:15 PM 66.2 °F - 46.4 °F 49% 29.93 in 10.0 mi WNW 4.6 mph - N/A   Clear
5:35 PM 64.4 °F - 48.2 °F 56% 29.93 in 10.0 mi West 3.5 mph - N/A   Clear
5:55 PM 62.6 °F - 51.8 °F 68% 29.94 in 10.0 mi Calm Calm - N/A   Clear
6:15 PM 59.0 °F - 51.8 °F 77% 29.95 in 10.0 mi Calm Calm - N/A   Clear
6:35 PM 55.4 °F - 51.8 °F 88% 29.95 in 10.0 mi Calm Calm - N/A   Clear
6:55 PM 53.6 °F - 50.0 °F 88% 29.97 in 10.0 mi Calm Calm - N/A   Clear
7:15 PM 53.6 °F - 50.0 °F 88% 29.98 in 10.0 mi Calm Calm - N/A   Clear
7:35 PM 51.8 °F - 50.0 °F 94% 29.98 in 10.0 mi Calm Calm - N/A   Clear
7:55 PM 51.8 °F - 50.0 °F 94% 29.98 in 10.0 mi Calm Calm - N/A   Clear
8:15 PM 50.0 °F - 50.0 °F 100% 29.98 in 10.0 mi Calm Calm - N/A   Clear
8:35 PM 48.2 °F - 48.2 °F 100% 29.99 in 10.0 mi Calm Calm - N/A   Clear
8:55 PM 48.2 °F - 48.2 °F 100% 30.00 in 10.0 mi Calm Calm - N/A   Clear
9:15 PM 46.4 °F - 46.4 °F 100% 30.01 in 10.0 mi Calm Calm - N/A   Clear
9:35 PM 46.4 °F - 46.4 °F 100% 30.01 in 10.0 mi Calm Calm - N/A   Clear
9:55 PM 46.4 °F - 46.4 °F 100% 30.01 in 10.0 mi Calm Calm - N/A   Clear
10:15 PM 44.6 °F - 44.6 °F 100% 30.01 in 10.0 mi Calm Calm - N/A   Clear
10:35 PM 44.6 °F - 44.6 °F 100% 30.01 in 10.0 mi Calm Calm - N/A   Clear
10:55 PM 44.6 °F - 44.6 °F 100% 30.01 in 10.0 mi Calm Calm - N/A   Clear
11:15 PM 42.8 °F - 42.8 °F 100% 30.01 in 10.0 mi Calm Calm - N/A   Clear
11:35 PM 42.8 °F - 42.8 °F 100% 30.00 in 10.0 mi Calm Calm - N/A   Clear
11:55 PM 42.8 °F - 42.8 °F 100% 30.01 in 10.0 mi Calm Calm - N/A   Clear